RH
40 43 43 40 38 38 38 40 41 42 40 40 44 49 51 53 55 57 62 66 66 64 62 62 62 63 66 69 73 80 84 83 79 72 68 67 64 59 54 49 46 44 41 40 39 39 37 36 35 35 34 35 35 36 36 35 35 35 37 39 40 39 38 37 38 41 44 41 34 30 29 28 26 25 25 24 23 21 20 19 19 18 19 20 20
40 42 43 42 40 40 40 41 44 44 41 39 43 46 48 50 53 55 60 65 67 66 65 68 70 68 69 71 75 81 82 79 78 73 69 67 62 52 46 43 42 42 40 40 39 39 39 39 39 39 38 38 37 36 36 35 35 36 37 38 39 40 40 41 41 41 40 36 31 29 29 28 26 26 26 25 24 23 22 22 21 19 20 22 22
40 44 45 44 43 43 43 45 48 46 42 38 40 44 47 49 52 55 59 65 71 71 68 70 72 70 70 72 75 78 78 76 76 73 69 66 57 46 40 39 41 42 40 40 41 41 42 42 42 42 41 39 37 36 35 36 36 33 31 33 37 41 42 40 39 39 35 30 28 29 29 27 27 27 26 26 26 25 24 23 22 22 21 23 24
42 45 45 44 45 45 45 47 49 47 42 38 38 43 46 48 53 57 60 68 76 76 71 70 70 70 71 72 73 74 74 75 76 72 68 63 52 42 38 39 41 41 40 41 43 44 44 44 44 44 41 38 36 36 36 36 35 30 27 29 32 36 37 35 35 36 33 28 27 29 28 27 28 27 27 27 28 28 26 25 25 23 23 25 25
44 45 45 45 46 47 47 49 49 45 39 36 38 42 45 49 54 57 60 66 71 72 71 71 70 69 70 71 72 73 72 72 72 70 66 58 46 37 36 39 41 40 41 43 45 45 45 45 45 43 40 38 36 36 35 35 33 29 28 28 29 33 36 35 34 35 32 27 26 28 28 28 27 27 28 28 28 28 27 27 27 25 24 26 27
45 46 45 45 47 48 48 49 47 43 39 37 39 42 45 50 54 56 60 66 68 68 70 71 69 68 70 71 71 72 71 68 66 65 60 49 40 36 37 39 40 41 43 44 44 45 45 46 44 42 39 37 36 35 34 34 34 31 30 29 30 35 38 37 35 34 30 26 27 28 28 28 28 28 29 30 29 29 27 27 27 26 26 27 28
47 48 46 46 47 47 48 48 46 42 40 39 40 43 47 51 54 58 66 70 70 70 73 72 69 69 69 69 71 72 68 62 58 56 50 42 38 38 38 38 41 42 43 44 44 45 45 44 42 39 37 37 36 35 35 37 36 34 33 32 32 35 38 37 35 32 28 27 28 29 29 29 29 28 29 30 32 31 28 27 27 28 28 28 28
49 50 48 47 48 48 48 48 45 42 40 40 43 46 50 53 55 62 69 71 70 72 72 71 70 69 68 69 71 70 62 55 53 51 47 43 41 39 38 40 41 42 43 43 43 43 41 40 38 37 37 37 37 37 37 38 38 37 35 34 32 34 36 37 36 32 27 27 28 29 29 29 28 28 29 30 31 31 29 28 28 29 30 30 30
51 53 51 49 50 50 50 47 45 42 41 43 47 48 50 53 55 61 68 69 69 70 70 70 71 70 68 68 68 65 57 52 51 51 49 46 42 39 39 40 40 41 41 41 40 39 38 38 37 37 38 39 40 40 39 38 38 38 36 33 32 34 36 37 37 33 27 26 29 29 29 29 28 29 30 29 30 29 29 30 29 30 32 33 33
52 55 53 52 53 53 51 47 43 43 43 47 50 50 50 51 53 59 66 68 66 67 68 69 70 70 69 66 64 60 55 52 51 51 49 45 42 40 40 40 39 38 37 37 37 37 38 38 39 40 41 42 42 41 39 37 38 39 37 34 33 35 37 37 38 35 29 27 29 30 29 29 29 30 31 30 30 30 30 31 31 33 35 35 35
54 56 54 54 56 54 50 45 43 43 45 50 53 51 50 51 54 58 63 64 64 64 66 67 69 70 69 63 60 58 55 52 50 49 47 43 41 41 40 39 36 35 35 35 37 38 40 40 41 43 45 44 42 40 37 36 38 41 41 38 36 36 38 38 39 38 34 29 28 30 30 30 31 33 34 32 32 31 31 32 32 34 36 36 36
56 57 55 56 58 54 47 44 43 43 45 51 54 52 50 52 55 57 60 62 61 62 65 67 67 69 69 62 56 57 56 52 49 47 44 41 40 39 38 37 35 34 34 35 38 40 42 42 44 46 48 46 43 40 38 41 46 49 47 43 39 39 40 40 40 40 38 33 29 29 30 31 33 35 36 35 33 32 33 33 33 35 37 37 38
58 57 55 57 58 51 45 43 42 43 46 53 55 53 52 53 55 57 60 60 59 59 63 65 66 70 70 61 54 53 53 50 47 44 40 37 35 34 34 34 34 35 35 36 40 42 44 46 47 49 49 46 44 44 48 54 58 55 49 43 41 42 44 44 42 42 41 38 32 29 31 33 35 36 37 37 36 35 34 35 35 36 37 38 40
59 56 55 57 55 48 43 42 42 43 48 54 55 53 53 56 57 58 60 60 58 59 62 64 66 69 70 62 53 50 49 47 44 41 37 34 32 30 31 32 34 36 37 39 43 45 47 49 50 51 50 46 45 52 61 63 58 52 45 41 42 44 46 46 43 42 42 40 35 30 31 34 36 37 39 39 39 38 37 38 38 38 39 41 43
57 55 55 56 53 46 42 41 42 43 47 52 53 51 52 56 57 58 60 60 58 58 61 64 66 69 69 63 54 49 46 44 42 38 34 33 31 31 33 34 36 38 41 44 47 49 52 53 54 56 55 50 50 58 64 60 51 45 40 39 42 45 47 46 43 42 43 42 36 31 30 33 35 38 41 43 42 42 42 42 41 40 41 44 48
55 54 54 53 50 45 41 40 41 42 47 51 50 49 52 54 56 59 61 60 58 57 60 64 65 68 68 62 55 50 46 44 44 41 37 35 35 36 37 38 40 43 45 49 51 53 56 56 56 57 57 58 61 63 61 54 45 38 35 38 43 46 47 46 43 42 44 42 38 34 31 33 36 40 44 45 46 46 46 45 43 43 46 49 52
55 53 52 51 47 42 40 39 39 42 47 50 48 47 52 55 57 61 61 60 58 58 60 63 64 66 66 61 55 51 48 48 49 48 45 41 40 41 43 43 45 48 50 53 55 56 58 58 59 61 62 65 68 65 60 53 43 36 36 39 43 45 46 46 44 44 44 43 41 38 36 37 39 43 45 48 49 48 47 46 47 49 53 54 53
53 52 51 49 45 42 40 39 40 42 47 49 47 47 52 59 62 63 62 60 59 59 60 62 63 63 63 60 56 53 51 51 52 52 52 50 48 49 49 50 51 52 53 55 56 59 61 61 63 65 64 62 62 59 56 51 43 38 38 39 42 45 46 46 46 46 47 47 46 44 41 41 43 46 48 50 49 48 48 50 52 54 57 57 54
52 51 50 48 45 42 39 38 39 44 49 50 48 48 52 58 63 64 61 59 60 60 59 59 62 63 61 59 57 54 53 53 53 55 57 56 56 56 56 56 58 57 57 59 60 62 64 63 64 64 60 57 57 55 51 47 42 38 38 40 44 46 47 48 48 48 48 49 48 46 43 44 47 49 50 50 49 50 52 54 55 55 56 54 51
52 52 49 48 46 42 40 39 40 47 52 52 51 55 60 65 67 65 62 60 61 61 59 58 61 63 62 58 56 54 53 53 55 58 60 62 64 64 62 62 62 61 63 64 64 64 63 62 62 60 57 55 56 53 49 46 41 39 40 44 48 49 49 49 49 47 48 50 48 46 45 47 50 52 51 50 51 53 54 54 54 54 53 51 49
54 53 49 47 46 43 41 40 40 49 57 56 52 56 65 74 77 71 65 64 63 62 61 60 62 63 61 58 55 55 56 56 59 61 63 66 69 68 66 65 65 65 66 67 67 65 63 61 60 57 55 56 56 55 52 46 41 42 47 51 52 52 51 51 50 48 49 49 49 47 48 51 54 55 53 52 51 51 52 53 54 56 55 53 51
55 53 49 46 45 42 41 40 41 48 56 55 52 55 63 74 79 76 71 68 66 66 67 65 63 62 59 58 58 60 61 61 63 65 67 70 71 70 69 68 67 66 66 67 67 65 63 62 61 58 56 58 62 63 58 48 45 50 57 57 56 55 55 53 51 50 50 50 50 50 51 55 56 55 54 52 50 51 54 57 58 58 56 54 51
55 52 47 44 43 42 41 40 43 48 52 52 53 58 65 74 78 79 78 74 70 70 70 66 64 62 59 58 60 61 63 64 65 68 71 73 73 71 69 67 64 62 62 63 64 63 63 64 64 63 63 66 71 70 62 54 56 64 66 62 58 58 58 55 51 51 51 51 50 50 52 53 53 52 52 52 52 55 58 61 61 59 55 53 51
56 50 44 41 42 41 40 42 47 50 51 51 53 57 64 71 76 80 82 78 72 70 68 64 63 63 60 60 61 62 63 65 67 68 70 70 69 67 65 63 61 61 61 61 63 66 68 69 70 70 70 72 72 68 64 66 72 73 69 62 57 59 61 56 51 51 52 50 50 51 52 51 50 50 52 54 56 59 61 62 60 57 54 53 53
56 49 44 42 41 40 43 51 54 53 52 52 53 57 63 69 75 81 83 79 72 68 64 61 61 62 62 63 64 64 64 65 65 65 66 67 67 67 65 61 59 59 59 60 65 69 71 72 74 74 73 73 71 69 71 77 79 74 66 59 58 64 65 57 51 51 51 50 50 50 49 49 50 51 54 57 59 61 62 62 59 56 55 56 55
56 49 44 42 42 42 46 52 53 50 51 53 54 59 66 69 73 79 81 76 69 65 63 61 61 63 64 64 65 65 64 64 65 66 66 66 67 66 64 60 57 57 59 62 65 68 69 72 75 76 75 75 75 77 81 82 79 73 64 58 60 65 63 55 50 50 50 50 49 48 46 47 50 53 56 59 61 62 63 62 59 57 58 59 58
56 50 45 42 43 45 47 50 49 48 51 53 55 61 66 69 70 74 75 72 67 65 63 62 63 65 65 64 64 64 64 65 67 67 67 66 65 65 64 63 62 64 65 66 65 68 72 76 77 75 74 74 77 81 84 84 78 71 64 62 65 65 58 52 51 51 51 50 48 46 46 49 53 56 58 61 63 64 65 63 61 59 60 61 61
58 53 49 46 45 44 46 48 50 51 52 52 55 62 65 66 68 71 71 68 64 64 65 65 66 65 62 62 64 65 67 68 69 68 66 64 64 65 67 67 68 69 69 67 65 69 75 79 78 76 74 74 77 80 83 80 74 66 62 64 68 65 57 52 52 52 50 48 46 46 48 51 55 58 60 62 64 65 65 64 63 62 63 63 62
58 56 53 51 49 47 47 50 54 56 55 53 57 63 65 65 67 69 69 67 64 63 64 65 64 61 59 62 66 69 70 70 69 66 64 64 65 67 68 69 68 69 69 68 67 69 74 77 77 76 76 76 78 81 83 78 70 63 60 62 65 63 58 56 55 52 49 46 46 48 50 52 56 58 60 63 65 66 66 65 63 64 64 64 63
58 56 54 53 52 50 51 54 55 55 53 54 59 64 65 66 67 69 69 68 66 64 64 63 61 60 63 67 70 71 70 68 64 61 61 63 64 65 66 67 69 71 72 72 71 71 73 74 74 74 77 79 81 83 83 77 70 64 62 62 64 63 60 57 55 53 51 48 48 49 50 52 57 60 62 65 67 66 66 64 64 64 64 64 63
62 58 56 56 54 51 51 54 54 53 55 60 65 67 66 66 68 69 69 68 66 64 63 62 61 64 69 71 71 70 66 62 59 59 60 61 63 63 63 66 70 73 74 72 70 70 70 71 73 74 76 78 79 79 79 76 72 68 66 67 69 66 60 57 55 54 54 53 53 53 53 54 57 60 63 65 67 66 65 65 65 65 65 65 65
64 60 58 57 54 49 48 49 52 55 60 65 68 68 66 67 69 70 69 68 66 64 62 61 62 66 70 71 69 66 62 59 59 60 61 63 64 65 65 66 68 69 69 68 68 69 69 70 72 72 71 70 71 73 75 75 74 71 69 69 69 64 58 55 54 55 55 56 57 58 58 58 58 59 62 65 66 65 64 64 65 65 65 66 66
67 62 57 54 52 52 51 50 54 59 63 66 70 69 66 67 71 72 69 67 65 63 62 63 65 67 67 65 62 62 62 63 63 64 64 66 67 68 69 68 66 64 65 66 68 68 68 68 70 71 70 67 66 66 68 71 73 74 74 72 69 64 58 54 52 52 54 56 60 62 61 59 59 62 64 65 65 63 63 64 65 65 65 66 66
69 61 55 53 56 60 59 56 60 65 66 67 69 68 65 67 72 71 69 67 65 64 65 67 67 65 62 60 60 63 65 64 65 67 69 70 70 72 73 70 65 62 64 66 66 67 68 68 69 71 72 71 68 66 67 69 71 73 74 74 71 65 58 52 51 52 56 60 64 63 61 61 62 64 65 66 65 64 65 65 65 64 63 63 65
73 69 67 66 66 67 67 66 67 69 68 68 69 69 68 68 70 69 67 66 66 67 68 68 64 60 59 61 64 67 67 66 67 71 74 74 73 73 73 68 63 61 62 63 65 67 69 68 67 67 69 70 68 65 65 67 69 70 71 71 66 61 57 55 53 53 56 61 65 65 64 65 66 65 66 67 66 66 68 68 67 66 63 63 64
82 82 80 75 72 72 74 75 73 71 71 71 72 72 70 68 68 68 67 68 69 69 68 64 61 60 63 67 71 72 71 70 69 70 71 70 69 68 67 64 61 61 61 64 67 68 67 65 64 63 63 64 64 64 65 67 69 69 69 67 63 58 57 57 56 55 57 61 66 68 66 66 68 68 66 64 63 63 67 72 71 68 65 65 67
85 83 80 75 73 74 75 76 74 73 74 74 72 71 70 68 67 68 70 71 71 69 66 63 63 65 69 71 73 74 73 72 71 71 71 69 65 63 62 61 60 61 61 63 64 64 63 63 61 60 58 59 61 65 68 69 67 64 63 64 64 61 57 54 55 58 60 62 66 69 69 69 70 69 65 62 59 59 67 75 75 71 68 67 68
86 84 81 79 77 76 76 76 75 75 76 74 71 69 69 69 69 71 72 70 68 66 65 66 68 71 74 76 75 74 73 74 73 72 71 68 64 61 59 58 58 59 60 61 62 62 62 61 59 58 58 59 60 62 65 66 66 64 62 61 59 57 53 50 49 52 54 54 58 66 71 71 68 66 69 69 64 60 67 76 78 74 70 68 67
88 89 87 83 81 79 77 77 77 76 75 72 69 68 69 69 70 70 70 68 65 65 68 72 76 78 80 81 79 75 73 74 75 73 69 65 61 59 56 55 56 58 60 60 61 60 59 58 58 58 58 59 60 62 63 63 63 63 63 59 53 49 48 47 44 44 45 46 49 56 62 63 62 63 69 72 66 60 65 75 79 75 70 66 67
88 89 87 83 82 80 79 77 77 76 75 72 69 68 67 66 66 66 66 65 66 69 73 78 81 81 81 82 80 75 71 71 71 68 64 60 57 55 53 53 57 60 61 60 58 58 59 60 60 59 59 59 60 61 59 56 55 56 57 57 54 52 51 47 42 38 38 40 43 46 51 57 60 61 63 65 64 60 62 68 74 72 68 67 70
90 89 85 82 82 81 78 76 75 74 72 70 68 65 63 62 62 63 64 65 68 71 74 75 78 79 79 78 75 71 67 65 63 60 57 55 54 54 54 56 58 58 57 56 55 56 58 60 60 60 61 60 59 56 52 49 49 51 51 51 51 54 56 54 48 42 38 38 39 41 45 51 55 55 54 57 59 58 58 63 69 71 70 71 72
93 91 87 84 82 80 77 73 71 69 67 65 64 62 62 63 64 65 67 69 71 72 73 74 75 75 73 70 67 64 61 60 58 56 54 54 54 54 56 57 56 54 53 53 53 54 56 59 60 59 57 55 52 49 45 43 44 45 45 45 46 48 52 55 56 53 47 44 43 44 45 46 49 52 54 56 59 62 65 69 73 74 74 72 71
94 89 84 80 80 79 76 71 68 67 67 66 66 65 66 67 70 72 73 74 75 75 75 75 74 71 67 64 61 59 58 58 56 55 53 53 54 56 57 57 55 53 53 54 53 54 57 59 57 52 48 47 46 44 44 42 41 40 41 42 42 41 43 47 51 53 52 50 49 48 45 45 49 54 58 62 68 72 74 74 75 75 73 72 71
88 84 82 80 80 82 81 78 74 73 73 73 73 73 73 75 77 78 78 78 78 76 75 72 69 66 62 60 59 59 58 57 55 54 54 56 59 60 60 58 57 56 56 56 56 54 52 51 49 45 43 44 45 44 42 41 40 40 42 43 41 39 40 42 45 48 50 51 49 45 41 43 50 57 64 69 75 77 76 75 75 74 72 70 70
85 84 84 85 85 86 85 83 81 79 78 78 79 79 80 81 81 80 79 78 74 71 68 66 63 61 59 59 59 59 57 56 55 55 58 60 62 61 60 60 60 57 56 56 55 50 44 41 43 44 45 46 45 44 42 42 41 42 44 44 42 40 40 40 42 46 49 50 49 46 43 44 49 58 66 72 74 74 74 73 72 70 69 67 68
86 86 86 86 87 88 88 86 85 84 83 82 82 83 83 82 81 78 76 72 68 65 63 62 60 59 58 58 58 57 56 56 57 59 60 61 59 58 59 61 60 54 50 51 52 46 39 38 41 42 42 40 39 38 38 39 40 43 43 43 40 38 37 39 43 47 49 50 50 50 49 48 50 55 60 63 63 63 64 65 65 65 65 65 66
87 86 86 83 82 82 82 82 83 83 83 83 84 83 82 79 75 71 68 66 64 63 62 60 59 58 57 57 57 57 57 59 59 60 60 59 58 58 58 56 52 46 43 44 44 41 39 41 42 40 36 33 30 30 31 34 39 42 42 39 36 34 35 40 45 48 48 47 47 48 50 49 50 52 54 55 55 56 58 59 60 61 63 65 67
88 87 84 80 78 79 79 79 79 79 80 80 79 77 74 70 66 64 63 64 63 63 62 60 59 58 58 59 60 60 60 60 59 58 58 58 58 57 54 49 46 42 41 41 40 40 42 43 41 36 31 28 25 26 30 36 40 41 38 35 33 34 38 43 47 47 46 44 43 44 46 48 49 51 53 54 55 55 56 58 59 61 63 64 65
86 87 85 82 80 80 78 75 74 74 73 72 70 67 65 64 63 63 64 64 64 63 62 60 59 59 59 61 61 61 60 59 59 58 58 58 56 54 50 47 46 44 42 41 42 42 43 41 37 33 30 28 27 30 34 38 39 37 35 34 35 36 39 42 43 43 43 42 41 40 41 43 45 47 48 49 49 49 51 52 55 57 58 60 61
75 78 80 80 80 77 72 70 68 67 65 65 64 63 63 63 63 63 63 62 62 61 59 59 58 59 60 60 59 58 58 57 57 57 57 55 53 50 49 48 46 44 42 43 42 41 40 38 36 33 32 31 31 32 35 37 36 35 35 38 39 40 40 41 42 41 41 41 40 39 39 39 40 41 42 43 43 44 46 49 52 55 57 61 65
69 71 72 73 73 72 70 69 68 66 64 64 64 64 65 65 65 65 64 63 63 61 59 58 57 58 58 58 56 55 55 55 55 55 55 54 53 51 50 47 46 46 45 44 42 40 38 37 34 34 35 36 36 36 36 35 34 34 37 40 42 43 44 44 44 44 45 45 44 43 42 41 41 43 43 44 44 46 48 51 55 58 62 65 67